{"data":{"norad_id":39209,"intl_designator":"2013-037B","name":"CHUANGXIN-3 (CX-3)","alt_names":[],"object_type":"PAYLOAD","status":"ACTIVE","operator":null,"country":"PRC","launch_date":"2013-07-19","launch_site_code":"TAISC","launch_vehicle":null,"mission":null,"orbit_class":"UNKNOWN","rcs_meters":1.335,"size_class":null,"mass_kg":null,"dimensions":null,"purposes":[],"wikipedia_slug":null,"has_3d_model":false,"image_url":null,"decayed_at":null,"tle_current":{"epoch":"2026-05-24T23:48:11.860416Z","epoch_age_seconds":71649,"freshness":"FRESH","line1":"1 39209U 13037B   26144.99180394  .00000783  00000+0  12532-3 0  9990","line2":"2 39209  98.0817 151.2791 0003645 187.6306 172.4847 14.74558238688937","mean_motion":14.74558238,"eccentricity":0.0003645,"inclination_deg":98.0817,"raan_deg":151.2791,"arg_perigee_deg":187.6306,"mean_anomaly_deg":172.4847,"bstar":0.00012532,"rev_number":68893,"period_min":97.656366692788,"perigee_km":643.99343684993,"apogee_km":649.11443654278,"semimajor_km":7024.6909366964,"source":"CELESTRAK","updated_at":"2026-05-25T13:37:55.370050Z"}}}